Find Starlink 3116

NORAD ID: 49146 Int'l Des: 2021-082 Owner: SPXS Country: US Constellation: starlink operational
LEOCIRCULAR

实时位置

正在加载3D地球...

关于 Starlink 3116

正在加载描述...

即将过境

Passes for default location (London). Set your location on the main map for personalized predictions.

高度历史

Loading altitude history...

两行轨道根数

1 49146U 21082S 26121.77515909 .00000072 00000-0 14037-4 0 9990
2 49146 69.9993 141.5722 0004033 265.6541 94.4157 14.97523421255552
Epoch: May 1, 2026 • Age: 7 hours

当前状态

高度 577.2 km
速度 7.57 km/s
星下点 -4.11°S, 74.76°E
发射日期 Sep 14, 2021
运行时间 4.6 years
类型 internet

技术详情

分类 Payload
质量 297.00 kg
干质量 275.00 kg
总质量 297.00 kg
长度 0.20 m
直径 2.80 m
跨度 9.00 m
形状 Box + pan
制造商 SPXS
平台类型 Starlink
阶段状态 In Orbit
所有者/国家 SPXS/US

Most Searched